Terminal Aerodrome Forecast
Issued by NWS

Home | Current Version | Previous Version | Text Only | Print | Product List | Glossary On
Versions: 1 2 3 4 5 6 7 8 9 10 11 12 13 14 15 16
000
FTUS45 KTFX 240800 AAA
TAFBZN
TAF AMD
KBZN 240803Z 2408/2506 26014KT P6SM OVC080=

USA.gov is the U.S. government's official web portal to all federal, state and local government web resources and services.